Location: Newark
(49.8348°N, 24.0280°E)
Time: 20:33:56
(UTC+00:00)

Explorer 7 - Pass Details

Date: 27 January 2020
Orbit: 485 x 679 km, 50.3° (Epoch: 19 February)

Event Time Altitude Azimuth Distance (km) Brightness Sun altitude
Rises 22:48:24 0° 269° (W) 2,554 - -58.5°
Reaches altitude 10° 22:50:34 10° 270° (W) 1,669 - -58.4°
Maximum altitude 22:54:19 82° 357° (N) 497 - -58.4°
Drops below altitude 10° 22:58:08 10° 87° (E) 1,691 - -58.3°
Sets 23:00:20 0° 88° (E) 2,592 - -58.2°
